Wind_Speed
76 70 67 61 56 55 56 58 52 51 45 41 35 30 30 31 32 32 31 27 31 30 34 37 38 38 38 37 36 37 36 36 36 36 35 35 33 32 33 33 33 34 33 34 35 34 37 38 41
81 75 73 66 60 61 61 62 58 54 46 48 42 35 34 35 36 36 34 32 32 33 34 38 38 40 40 40 40 39 41 41 41 41 40 39 37 36 35 34 35 36 35 38 37 35 36 35 39
85 81 77 74 71 70 69 66 65 61 57 52 50 46 42 41 40 42 41 38 36 36 36 39 43 43 43 42 43 44 44 45 46 45 44 43 42 40 40 39 37 37 37 37 35 34 37 40 39
90 89 82 78 74 77 77 72 70 67 66 59 57 56 47 46 42 42 46 44 43 41 42 40 42 47 47 46 45 43 45 47 48 48 47 46 46 45 43 44 43 42 39 40 38 39 42 43 42
95 95 89 82 83 80 82 78 74 72 72 63 62 62 57 53 49 49 50 48 48 47 47 46 45 48 50 49 48 44 44 44 48 50 50 49 49 49 48 48 46 44 45 45 42 43 42 45 43
99 97 91 86 85 89 87 85 80 76 77 71 67 67 67 62 60 53 52 49 51 52 51 50 49 49 49 52 52 51 49 49 49 47 50 51 51 51 51 51 51 50 50 50 47 49 46 47 45
105 100 96 91 88 90 94 93 85 83 80 80 73 76 71 67 67 62 54 53 51 56 54 53 52 53 52 53 54 55 56 55 54 53 53 51 52 53 52 53 54 55 55 54 53 51 49 46 46
102 103 98 91 91 87 94 99 91 86 83 80 81 80 79 73 71 69 62 60 56 59 61 58 57 59 59 57 55 56 59 59 58 57 55 54 54 53 53 53 53 54 54 53 49 49 48 49 48
107 102 103 99 91 94 99 99 95 91 88 84 84 87 85 79 77 76 74 67 63 62 64 64 61 60 61 63 62 61 59 59 60 59 58 57 55 54 54 53 50 50 52 52 50 52 52 50 49
102 97 96 97 100 99 103 102 96 95 94 92 90 90 90 85 83 80 80 77 74 67 69 69 68 68 67 64 67 67 67 62 62 63 62 61 60 60 57 56 55 55 55 55 56 55 55 55 52
110 104 97 97 99 101 100 96 96 92 95 96 97 95 93 91 86 85 85 86 82 74 71 73 75 71 72 70 69 67 69 68 67 68 68 65 63 61 61 60 59 58 59 59 60 61 61 60 59
117 113 112 106 99 105 105 104 103 90 93 94 97 98 96 97 98 93 90 85 85 82 75 73 80 78 77 79 80 75 72 74 74 72 71 71 71 69 67 65 65 67 67 65 64 64 64 64 64
118 121 109 115 111 103 109 109 104 104 99 101 95 92 91 95 102 97 97 91 89 87 86 84 81 84 82 81 86 86 84 79 76 78 81 80 76 75 74 71 71 72 72 69 68 70 70 68 67
115 116 120 117 118 110 112 109 107 107 106 107 102 97 94 94 98 101 102 98 94 94 97 97 91 91 92 91 84 89 90 90 87 78 81 85 83 81 79 77 77 78 75 71 70 74 74 70 69
99 100 107 120 125 113 117 113 107 112 114 117 107 106 103 99 103 97 98 101 99 99 99 102 102 97 94 90 90 88 91 92 90 91 85 85 85 81 81 82 79 81 79 78 73 73 76 73 71
89 96 95 105 110 117 118 111 119 118 111 107 115 112 111 110 106 106 103 104 106 107 106 103 102 98 97 94 98 96 91 96 89 85 89 95 91 86 92 87 84 81 79 79 73 71 76 74 71
77 83 87 88 97 108 117 110 113 120 117 117 112 111 116 118 113 117 115 114 113 113 110 105 106 102 105 103 104 102 101 99 95 87 86 95 80 95 84 76 79 78 85 84 82 79 82 77 73
75 78 79 85 92 93 96 100 99 108 110 113 119 121 118 114 117 115 121 129 118 114 117 112 114 111 110 112 113 110 107 107 102 100 92 101 97 100 98 97 93 88 85 87 83 84 82 81 78
47 68 80 83 87 90 94 96 99 99 103 112 109 113 114 115 112 116 120 127 135 121 120 123 116 113 118 117 118 114 116 113 108 109 106 105 108 109 102 104 100 93 91 91 88 85 83 81 81
10 20 39 59 80 88 92 92 96 100 97 101 100 101 105 106 109 111 116 116 118 129 127 127 120 120 118 120 119 118 111 107 108 106 105 104 112 110 109 108 109 100 96 95 93 93 88 82 80
13 14 17 23 37 52 62 78 92 97 100 101 102 107 110 108 107 107 110 112 116 116 117 119 121 118 118 121 126 123 125 124 119 113 107 104 105 107 106 105 109 99 99 97 94 94 93 85 85
20 18 22 23 26 33 46 38 55 72 88 97 104 110 111 111 113 113 112 112 113 111 110 111 112 113 112 113 118 121 119 121 124 121 121 117 108 104 100 92 90 88 86 85 86 81 79 78 74
22 23 25 28 31 30 38 38 37 51 65 79 93 104 112 113 114 113 113 115 115 110 106 105 105 106 107 108 111 112 112 112 111 108 109 108 108 107 105 103 91 84 76 72 73 70 69 64 59
27 31 33 36 37 36 43 39 35 51 62 77 87 92 96 104 113 116 118 118 117 115 112 109 104 101 102 105 108 111 111 110 110 106 105 102 98 99 100 100 97 92 89 83 78 66 56 61 71
34 37 39 39 45 42 47 47 53 53 68 76 83 94 98 99 101 104 110 118 118 118 115 113 113 109 105 103 105 110 111 112 110 108 107 103 99 95 93 91 87 86 86 82 75 62 55 57 62
42 48 51 46 53 51 58 58 65 64 62 72 83 92 101 106 105 104 104 104 108 116 118 119 117 115 113 112 109 108 107 107 108 107 104 100 98 95 92 89 85 82 82 77 74 70 63 65 60
47 55 59 62 64 64 64 69 73 72 68 76 86 98 102 104 102 102 101 100 102 107 111 112 113 117 121 119 116 112 107 105 102 100 97 96 97 95 94 92 89 85 84 81 76 72 70 70 75
52 58 64 69 74 75 75 76 83 68 67 71 76 82 90 94 97 102 102 100 100 101 105 108 106 107 111 117 120 117 113 109 103 98 96 94 92 92 92 93 93 90 88 85 82 79 79 79 78
57 63 70 74 84 86 82 79 62 55 55 60 64 65 69 71 74 79 85 88 91 94 102 108 108 107 107 108 111 116 116 113 106 103 98 95 92 91 90 91 89 88 87 85 84 83 81 82 87
62 71 77 84 86 88 65 59 50 42 44 46 52 54 57 61 63 65 69 73 72 75 81 89 96 102 104 103 102 106 112 112 107 105 103 100 97 94 92 92 90 86 84 83 83 83 83 84 86
Wind_Direction
231 234 237 237 240 243 250 251 245 237 232 236 236 233 248 255 257 254 254 251 239 237 230 225 227 231 232 233 236 242 248 248 253 260 266 272 276 281 288 293 298 304 310 315 316 320 322 327 326
230 230 235 235 237 243 242 245 246 239 238 236 232 226 243 255 257 254 250 249 250 242 237 231 232 232 235 239 241 242 245 250 253 256 261 265 269 275 281 287 293 297 303 308 311 313 315 318 323
229 231 233 233 237 243 244 245 247 246 239 239 230 228 236 247 251 256 256 252 246 249 243 239 235 234 235 239 243 245 247 250 252 255 260 264 266 271 277 281 284 292 295 299 303 307 310 315 315
229 231 231 233 236 243 244 242 244 245 243 236 235 230 231 242 252 255 254 256 251 250 250 243 242 241 238 237 242 247 252 254 256 260 260 263 268 271 273 276 279 282 288 294 297 302 304 307 311
228 231 231 234 238 243 245 244 244 245 244 237 238 235 231 240 248 254 254 254 258 254 252 249 245 245 244 244 243 247 252 257 261 261 263 265 267 270 271 273 276 281 284 288 294 296 298 303 307
229 230 231 236 238 243 245 245 244 244 240 240 240 241 236 234 244 250 246 249 258 257 255 253 253 249 250 248 248 251 255 259 260 263 263 264 267 270 272 275 279 283 284 287 292 294 295 299 303
232 233 233 233 238 241 246 245 244 244 242 241 240 242 241 240 240 247 251 246 253 254 255 256 254 257 256 253 254 254 259 263 264 263 264 266 268 269 272 276 280 283 286 286 291 292 296 301 304
236 233 230 235 238 242 244 245 246 241 245 243 243 242 243 243 242 244 249 247 248 247 252 252 254 256 257 257 257 257 258 260 264 265 267 267 268 271 274 276 279 283 286 289 291 293 298 303 303
234 237 236 238 241 241 244 245 244 241 243 243 245 246 243 247 244 244 245 249 249 251 247 250 253 255 256 258 258 258 259 263 264 264 265 266 268 269 272 276 279 283 286 289 291 294 296 296 300
229 238 239 241 242 243 244 244 245 245 245 244 247 247 249 246 247 245 247 253 253 253 256 247 249 255 254 254 257 260 261 259 263 266 267 267 268 270 272 276 278 280 283 287 289 291 294 296 295
229 228 233 239 242 243 244 243 244 245 248 247 246 246 249 250 245 248 253 251 255 259 250 247 247 251 251 250 255 257 260 263 263 265 266 268 269 271 273 275 277 279 281 283 286 287 289 292 293
230 234 235 233 234 241 246 247 246 246 243 244 246 244 246 252 251 249 250 253 253 255 253 251 248 248 249 252 253 256 260 260 260 261 265 265 268 270 271 274 277 280 280 282 286 288 291 293 294
234 233 230 230 233 234 242 246 245 246 248 247 248 247 247 251 250 251 251 252 254 255 253 254 252 248 251 254 255 259 258 258 261 265 266 265 269 269 271 272 274 279 281 281 283 288 292 290 293
237 240 239 236 236 235 239 240 244 251 250 249 252 247 252 254 253 250 251 255 257 259 257 256 256 254 255 260 259 258 259 260 263 265 266 266 266 268 272 273 273 276 277 281 284 289 292 292 295
235 239 240 241 241 235 236 237 240 244 246 249 250 254 253 251 254 253 252 257 260 260 261 265 261 261 255 259 257 257 258 260 262 264 264 263 263 266 270 271 273 275 274 278 282 287 289 291 293
236 239 241 240 242 243 243 243 242 245 247 246 248 249 245 247 252 251 250 255 255 257 261 261 262 260 260 261 264 264 263 257 260 263 268 262 265 264 269 267 268 272 274 277 279 283 285 285 286
243 242 243 243 243 245 244 249 252 247 251 249 250 249 245 245 247 246 248 246 249 253 253 255 256 256 257 258 263 261 263 262 263 263 264 260 262 260 263 264 266 271 271 273 276 279 280 279 280
241 240 242 244 244 244 245 246 248 252 253 254 256 255 254 248 246 248 246 247 247 245 246 250 251 251 254 255 258 258 258 262 261 261 258 264 254 264 265 268 269 272 270 270 274 275 278 278 280
246 245 243 244 245 245 247 248 248 251 253 254 254 255 257 257 255 253 251 248 246 249 248 245 248 246 248 250 252 254 255 257 259 262 255 259 260 264 264 264 269 270 271 271 274 275 275 276 278
264 256 249 250 248 246 248 246 250 250 251 253 254 254 254 252 251 251 252 250 252 249 250 250 250 250 250 252 252 251 250 251 253 257 256 255 256 259 262 263 263 267 267 270 271 273 273 275 275
296 298 282 267 253 249 250 251 250 251 249 251 252 251 249 248 249 249 250 252 252 251 251 253 253 252 251 253 253 255 254 254 252 249 250 252 253 256 257 261 262 264 264 266 265 269 271 271 273
293 297 300 298 287 275 255 253 258 249 249 249 249 250 249 251 251 250 249 250 250 250 250 250 250 252 252 251 254 254 254 255 256 255 257 257 254 254 254 254 258 258 257 256 260 262 265 270 274
303 303 299 296 297 294 292 265 290 274 259 252 249 248 248 250 253 251 252 253 253 251 250 250 249 249 249 248 250 252 253 252 252 254 255 256 257 256 254 254 254 256 257 255 253 258 264 270 268
299 300 302 305 298 298 288 294 294 276 261 255 253 251 250 249 248 248 250 250 251 253 252 251 250 249 248 247 248 249 249 252 253 252 252 254 255 256 257 256 257 257 256 258 258 258 254 256 261
299 298 298 303 307 298 294 299 291 282 261 258 255 254 253 250 248 247 248 250 250 251 251 251 251 251 249 248 247 247 249 249 250 252 253 254 254 255 256 258 259 258 258 258 257 251 246 247 250
304 304 305 304 311 307 303 303 296 287 267 252 249 250 252 253 251 250 247 247 250 251 249 249 250 250 250 249 248 247 248 249 250 251 252 254 256 256 257 258 256 255 256 255 254 252 245 239 244
307 309 309 310 312 310 302 301 298 288 271 259 253 252 253 256 258 257 257 253 250 249 251 251 249 249 249 249 248 248 248 249 249 251 252 251 252 253 254 256 256 255 255 254 252 250 247 242 247
306 306 308 308 312 308 304 303 298 285 276 264 258 255 254 253 253 255 256 256 255 252 250 251 251 250 248 248 247 247 247 248 249 250 251 252 252 252 252 251 252 252 251 253 252 250 247 246 244
308 306 309 311 312 308 305 304 290 285 275 270 265 261 258 254 251 250 250 252 252 250 250 249 249 248 248 247 247 247 246 246 246 247 248 250 251 251 252 253 253 252 251 249 249 249 248 249 247
310 309 312 312 311 307 306 298 294 288 276 268 264 261 260 258 255 252 250 249 249 248 245 245 246 247 247 247 247 246 247 246 245 245 246 247 247 248 249 251 252 253 252 251 250 248 247 248 249
Height
10903 10909 10915 10919 10925 10929 10931 10936 10944 10951 10954 10958 10962 10965 10966 10968 10970 10973 10973 10975 10977 10977 10977 10978 10979 10980 10980 10982 10983 10985 10985 10985 10986 10986 10986 10986 10986 10986 10985 10984 10984 10984 10983 10982 10981 10980 10977 10976 10974
10892 10898 10904 10911 10917 10918 10921 10928 10934 10942 10946 10951 10955 10958 10960 10962 10963 10966 10969 10970 10972 10974 10973 10974 10974 10975 10976 10977 10979 10980 10981 10981 10981 10980 10981 10981 10981 10981 10981 10981 10981 10981 10980 10979 10978 10976 10974 10973 10970
10879 10885 10893 10902 10908 10906 10909 10918 10924 10931 10937 10940 10947 10950 10953 10956 10957 10960 10962 10967 10968 10969 10970 10970 10970 10970 10971 10972 10973 10975 10977 10977 10976 10977 10977 10976 10976 10977 10977 10977 10977 10977 10976 10975 10974 10972 10970 10969 10966
10867 10874 10883 10893 10897 10894 10896 10905 10913 10920 10926 10930 10935 10941 10945 10949 10952 10954 10956 10959 10962 10964 10965 10965 10966 10966 10966 10965 10966 10968 10969 10970 10972 10971 10971 10971 10972 10972 10972 10971 10971 10971 10971 10971 10969 10969 10967 10965 10963
10851 10862 10872 10883 10886 10883 10882 10893 10901 10908 10914 10918 10925 10932 10936 10941 10943 10946 10949 10951 10953 10956 10958 10960 10959 10961 10961 10961 10961 10961 10962 10963 10964 10965 10965 10965 10966 10966 10966 10965 10965 10966 10966 10965 10965 10964 10961 10960 10959
10839 10849 10863 10872 10871 10868 10867 10879 10886 10895 10902 10908 10913 10918 10922 10929 10934 10936 10941 10943 10946 10947 10949 10951 10954 10954 10955 10956 10956 10956 10955 10956 10956 10956 10957 10958 10960 10960 10960 10960 10960 10960 10960 10959 10960 10959 10957 10956 10955
10825 10832 10850 10856 10859 10858 10854 10860 10872 10879 10888 10897 10903 10904 10912 10920 10926 10931 10934 10937 10939 10940 10939 10941 10944 10947 10949 10948 10949 10949 10948 10948 10948 10949 10950 10951 10952 10953 10953 10955 10955 10954 10953 10953 10953 10953 10952 10952 10951
10809 10817 10834 10843 10845 10846 10836 10837 10860 10868 10874 10886 10891 10893 10899 10908 10914 10919 10923 10926 10929 10930 10931 10932 10934 10935 10937 10941 10942 10941 10941 10941 10940 10940 10942 10944 10945 10946 10947 10947 10947 10947 10946 10947 10947 10947 10947 10946 10946
10792 10806 10820 10824 10827 10825 10815 10824 10845 10856 10864 10870 10877 10880 10886 10893 10901 10907 10912 10915 10917 10921 10922 10924 10925 10925 10926 10928 10930 10932 10933 10933 10933 10932 10933 10934 10936 10936 10938 10938 10939 10939 10938 10939 10940 10940 10940 10939 10939
10778 10794 10800 10802 10807 10807 10801 10813 10827 10842 10853 10861 10864 10867 10874 10881 10885 10894 10899 10902 10905 10909 10911 10914 10916 10917 10917 10919 10920 10921 10924 10924 10924 10923 10923 10924 10925 10927 10929 10930 10932 10932 10931 10931 10932 10933 10933 10933 10932
10763 10779 10783 10786 10791 10793 10797 10804 10813 10833 10841 10840 10845 10854 10859 10865 10873 10879 10882 10887 10890 10894 10897 10899 10902 10906 10907 10907 10909 10911 10913 10914 10913 10912 10913 10915 10916 10918 10919 10921 10923 10923 10922 10922 10923 10924 10924 10926 10924
10748 10759 10769 10772 10777 10782 10781 10786 10803 10815 10817 10816 10826 10839 10847 10848 10854 10862 10868 10869 10874 10876 10881 10886 10887 10888 10890 10895 10898 10900 10901 10902 10901 10902 10902 10903 10905 10906 10909 10912 10913 10914 10914 10914 10913 10914 10915 10916 10914
10726 10737 10746 10752 10757 10762 10764 10775 10782 10798 10801 10798 10805 10820 10832 10834 10839 10842 10848 10854 10855 10862 10864 10868 10871 10873 10876 10880 10884 10887 10889 10890 10891 10893 10892 10892 10893 10894 10898 10901 10904 10903 10904 10906 10906 10906 10907 10907 10905
10709 10717 10724 10731 10737 10744 10752 10764 10774 10777 10775 10778 10794 10805 10815 10820 10823 10826 10833 10837 10841 10842 10845 10852 10855 10857 10858 10863 10868 10870 10872 10873 10877 10880 10881 10881 10880 10880 10883 10888 10892 10892 10894 10894 10897 10897 10896 10897 10895
10691 10698 10702 10709 10717 10732 10741 10753 10757 10747 10760 10769 10775 10786 10796 10804 10806 10811 10816 10819 10817 10823 10825 10830 10834 10840 10841 10844 10846 10850 10856 10860 10864 10866 10867 10867 10867 10867 10869 10873 10876 10878 10883 10882 10884 10886 10888 10887 10887
10675 10682 10689 10696 10702 10706 10720 10734 10725 10732 10737 10754 10753 10760 10768 10777 10783 10795 10797 10801 10802 10804 10808 10813 10816 10816 10819 10822 10822 10831 10838 10844 10849 10850 10853 10850 10852 10853 10855 10860 10863 10866 10868 10873 10873 10873 10877 10879 10877
10661 10670 10676 10681 10684 10691 10705 10714 10701 10709 10714 10722 10732 10730 10741 10749 10761 10770 10774 10778 10779 10781 10789 10796 10800 10800 10796 10797 10802 10814 10818 10823 10829 10837 10837 10831 10829 10836 10840 10843 10849 10856 10858 10861 10863 10862 10864 10868 10869
10645 10650 10655 10659 10663 10671 10681 10695 10684 10684 10695 10695 10701 10704 10709 10721 10732 10738 10746 10753 10754 10758 10766 10776 10782 10783 10779 10779 10783 10792 10798 10801 10808 10819 10823 10814 10816 10822 10829 10827 10830 10841 10846 10848 10849 10850 10852 10855 10858
10631 10634 10638 10641 10645 10653 10659 10670 10668 10665 10672 10676 10673 10678 10683 10690 10699 10704 10710 10719 10727 10731 10740 10752 10760 10760 10758 10760 10760 10767 10777 10779 10789 10793 10803 10804 10800 10799 10809 10811 10813 10821 10831 10831 10832 10836 10839 10839 10842
10621 10622 10624 10625 10628 10636 10638 10645 10647 10645 10649 10649 10652 10655 10658 10658 10664 10666 10671 10682 10692 10704 10712 10719 10733 10735 10736 10736 10736 10741 10749 10758 10765 10772 10779 10782 10787 10784 10785 10796 10797 10807 10811 10817 10819 10819 10823 10828 10830
10615 10615 10615 10615 10615 10616 10619 10622 10623 10627 10632 10627 10626 10620 10621 10623 10627 10634 10641 10650 10659 10669 10684 10691 10698 10706 10709 10708 10711 10719 10725 10741 10743 10745 10747 10756 10763 10769 10776 10773 10776 10789 10798 10804 10806 10804 10806 10813 10816
10607 10608 10607 10605 10604 10601 10602 10614 10605 10596 10598 10597 10594 10589 10588 10588 10601 10610 10615 10622 10630 10645 10654 10664 10671 10678 10682 10686 10690 10692 10700 10708 10720 10720 10726 10740 10746 10751 10757 10761 10761 10765 10773 10785 10789 10790 10791 10796 10802
10600 10599 10598 10595 10593 10593 10586 10597 10589 10576 10574 10562 10560 10560 10566 10570 10578 10590 10595 10600 10602 10617 10627 10634 10644 10652 10658 10662 10666 10668 10675 10682 10687 10693 10702 10710 10719 10730 10738 10742 10748 10753 10756 10765 10774 10780 10782 10785 10788
10590 10587 10585 10582 10579 10579 10571 10575 10578 10558 10545 10540 10538 10538 10540 10541 10549 10557 10562 10571 10578 10585 10597 10604 10613 10622 10632 10640 10642 10645 10652 10656 10662 10671 10680 10688 10697 10706 10715 10721 10731 10739 10742 10749 10759 10767 10772 10771 10770
10576 10574 10572 10571 10564 10561 10554 10556 10545 10537 10527 10524 10518 10508 10508 10512 10517 10528 10536 10540 10553 10559 10568 10576 10583 10594 10601 10609 10616 10621 10627 10632 10641 10649 10657 10668 10679 10688 10691 10701 10712 10720 10722 10732 10741 10750 10756 10754 10758
10561 10554 10549 10550 10543 10540 10528 10530 10522 10512 10506 10503 10493 10486 10482 10481 10490 10498 10510 10519 10523 10528 10537 10545 10555 10565 10572 10578 10586 10593 10602 10612 10620 10632 10642 10650 10659 10666 10671 10682 10694 10701 10703 10713 10723 10731 10735 10740 10741
10545 10534 10527 10521 10520 10517 10511 10505 10492 10479 10476 10468 10462 10457 10458 10459 10464 10471 10479 10492 10501 10503 10505 10515 10526 10535 10539 10544 10554 10566 10580 10587 10599 10609 10620 10631 10639 10647 10652 10659 10670 10678 10684 10693 10704 10711 10716 10723 10723
10530 10522 10515 10503 10498 10490 10484 10475 10457 10449 10441 10436 10432 10433 10434 10438 10442 10445 10450 10458 10468 10479 10483 10487 10497 10505 10509 10514 10525 10536 10548 10558 10575 10588 10597 10606 10617 10626 10632 10636 10643 10657 10666 10672 10681 10689 10696 10700 10702
10517 10507 10499 10486 10471 10455 10447 10443 10422 10420 10414 10409 10408 10410 10411 10413 10416 10423 10425 10431 10440 10452 10459 10463 10470 10477 10483 10488 10496 10509 10521 10534 10550 10561 10573 10584 10593 10603 10610 10615 10623 10634 10644 10653 10660 10668 10674 10679 10684
10501 10489 10477 10465 10450 10430 10418 10412 10401 10399 10393 10390 10385 10387 10389 10391 10394 10400 10407 10411 10416 10424 10431 10437 10445 10452 10459 10468 10477 10481 10492 10511 10527 10537 10547 10557 10568 10579 10588 10593 10601 10611 10621 10630 10638 10646 10654 10660 10664